Home   Weather   Kalamaria   Past weeks

Flag for Greece Past Weather in Kalamaria, Greece — Yesterday and Last 2 Weeks

Now
46 °F

Partly sunny.


Feels Like: 44 °F
Forecast: 35 / 42 °F
Wind: 5 mph from West

Location: Thessaloniki Airport

Current Time: Jan 17, 2017 at 3:22:40 pm

Latest Report: Jan 17, 2017 at 2:50 pm


Visibility: 5 mi

Pressure: 29.92 "Hg

Humidity: 82%

Dew Point: 41 °F

Location of KalamariaLocation

Past Weather in Kalamaria — Graph

°F

Kalamaria Temperature Yesterday

Maximum temperature yesterday: 45 °F (at 2:20 pm)
Minimum temperature yesterday: 39 °F (at 6:50 am)
Average temperature yesterday: 42 °F

High & Low Weather Summary for the Past Weeks

 TemperatureHumidityPressure
High52 °F (Jan 3, 3:50 pm)100% (Jan 5, 7:20 am)30.21 "Hg (Jan 5, 7:20 am)
Low14 °F (Jan 11, 1:50 am)28% (Jan 7, 3:20 pm)29.47 "Hg (Jan 5, 8:50 pm)
Average32 °F71%29.96 "Hg
* Reported Jan 2 2:20 pm — Jan 17 2:20 pm, Kalamaria, Weather by CustomWeather, © 2017

Note: Actual official high and low records may vary slightly from our data, if they occured in-between our weather recording intervals... More about our weather records

Advertising

Kalamaria Weather History for the Previous 24 Hours

Scroll right to see more
 ConditionsComfort  
Time TempWeatherWind HumidityBarometerVisibility
2:20 pm
Tue, Jan 17
46 °FPartly sunny.3 mph82%29.92 "Hg5 mi
1:50 pm45 °FPartly sunny.5 mph93%29.95 "Hg5 mi
1:20 pm45 °FPartly sunny.5 mph87%29.95 "Hg5 mi
12:50 pm45 °FPartly sunny.3 mph87%29.95 "Hg5 mi
12:20 pm43 °FPartly sunny.7 mph93%29.95 "Hg4 mi
11:50 am43 °FLight rain. Partly sunny.7 mph87%29.98 "Hg4 mi
11:20 am43 °FLight rain. Partly sunny.6 mph87%29.98 "Hg5 mi
10:50 am41 °FPartly sunny.6 mph93%29.98 "Hg5 mi
10:20 am41 °FLight rain. Partly sunny.7 mph93%29.98 "Hg5 mi
9:50 am41 °FPartly sunny.8 mph93%29.98 "Hg5 mi
9:20 am41 °FPartly sunny.6 mph93%29.98 "Hg5 mi
8:50 am41 °FPartly sunny.5 mph93%29.98 "Hg5 mi
7:50 am39 °FPartly sunny.8 mph93%29.95 "Hg5 mi
7:20 am39 °FPassing clouds.7 mph93%29.95 "Hg5 mi
6:50 am39 °FPassing clouds.3 mph93%29.92 "Hg5 mi
6:20 am39 °FPassing clouds.6 mph93%29.92 "Hg5 mi
5:50 am39 °FPassing clouds.9 mph93%29.92 "Hg5 mi
5:20 am39 °FPassing clouds.5 mph93%29.92 "Hg5 mi
4:50 am41 °FPassing clouds.5 mph93%29.92 "Hg5 mi
4:20 am41 °FPassing clouds.8 mph87%29.92 "Hg5 mi
3:50 am41 °FPassing clouds.3 mph93%29.92 "Hg5 mi
3:20 am41 °FPassing clouds.7 mph93%29.92 "Hg5 mi
2:50 am41 °FPassing clouds.5 mph93%29.92 "Hg5 mi
1:50 am39 °FLight rain. Passing clouds.9 mph93%29.92 "Hg5 mi
12:20 am41 °FLight rain. Passing clouds.7 mph87%29.92 "Hg6 mi
11:50 pm
Mon, Jan 16
41 °FLight rain. Passing clouds.6 mph87%29.92 "Hg6 mi
11:20 pm39 °FLight rain. Passing clouds.7 mph93%29.92 "Hg6 mi
10:50 pm41 °FPassing clouds.7 mph87%29.92 "Hg6 mi
10:20 pm41 °FPassing clouds.8 mph87%29.92 "HgN/A
9:50 pm41 °FPassing clouds.10 mph81%29.92 "HgN/A
9:20 pm41 °FPassing clouds.5 mph81%29.92 "HgN/A
8:50 pm41 °FPassing clouds.No wind76%29.92 "HgN/A
8:20 pm41 °FPassing clouds.2 mph76%29.92 "HgN/A
7:50 pm41 °FPassing clouds.3 mph76%29.92 "HgN/A
7:20 pm41 °FPassing clouds.5 mph70%29.92 "HgN/A
6:50 pm41 °FPassing clouds.3 mph70%29.92 "HgN/A
6:20 pm41 °FPassing clouds.5 mph70%29.92 "HgN/A
5:50 pm41 °FPassing clouds.3 mph70%29.92 "HgN/A
5:20 pm43 °FPartly sunny.9 mph66%29.92 "HgN/A
4:50 pm43 °FPartly sunny.3 mph66%29.92 "HgN/A
4:20 pm43 °FPartly sunny.7 mph66%29.92 "HgN/A
3:50 pm43 °FPartly sunny.9 mph66%29.92 "HgN/A
3:20 pm43 °FPartly sunny.8 mph66%29.92 "HgN/A
Weather by CustomWeather, © 2017

See weather overviewHow to use our weather pages